Weather History for Kelso-Longview, WA

Change the Weather History Date:

Friday, October 14, 2011

  Actual Average Record
Temperature  
Mean Temperature 55 °F -  
Max Temperature 60 °F 60 °F 73 °F (2004)
Min Temperature 50 °F 43 °F 35 °F (2002)
Degree Days  
Heating Degree Days 10    
Growing Degree Days 5 (Base 50)    
Moisture  
Dew Point 46 °F    
Average Humidity 74    
Maximum Humidity 82    
Minimum Humidity 63    
Precipitation  
Precipitation 0.00 in - - ()
Sea Level Pressure  
Sea Level Pressure 29.97 in    
Wind  
Wind Speed 5 mph (North)    
Max Wind Speed 9 mph    
Max Gust Speed -    
Visibility 10 miles    
Events      
Averages and records for this station are not official NWS values.
T = Trace of Precipitation, MM = Missing Value Source: NWS Daily Summary

Daily Weather History Graph

Daily Weather History Graph

Search for Another Location

Airport:

Trip Planner

Search our weather history database for the weather conditions in past years. The results will help you decide how hot, cold, wet, or windy it might be!

Date:

Astronomy

Oct. 14, 2011 Rise Set
Actual Time 7:27 AM PDT 6:27 PM PDT
Civil Twilight 6:56 AM PDT 6:57 PM PDT
Nautical Twilight 6:22 AM PDT 7:32 PM PDT
Astronomical Twilight 5:47 AM PDT 8:06 PM PDT
Moon 7:32 PM PDT (10/14) 10:12 AM PDT (10/14)
Length of Visible Light 12h 00m
Length of Day
11h 00m
Waning Gibbous, 94% of the Moon is Illuminated
Oct 14
Waning Gibbous
Oct 19
Last Quarter
Oct 26
New
Nov 2
First Quarter
Nov 10
Full

Hourly Weather History & Observations

Time (PDT) Temp. Dew Point Humidity Pressure Visibility Wind Dir Wind Speed Gust Speed Precip Events Conditions
12:15 AM 51.8 °F 44.6 °F 76% 29.99 in 10.0 mi North 3.5 mph - N/A   Overcast
12:35 AM 51.8 °F 44.6 °F 76% 29.99 in 10.0 mi North 8.1 mph - N/A   Overcast
12:55 AM 51.8 °F 44.6 °F 76% 29.98 in 10.0 mi North 6.9 mph - N/A   Overcast
1:15 AM 51.8 °F 44.6 °F 76% 29.97 in 10.0 mi NNE 8.1 mph - N/A   Mostly Cloudy
1:35 AM 51.8 °F 44.6 °F 76% 29.97 in 10.0 mi North 6.9 mph - N/A   Mostly Cloudy
1:55 AM 51.8 °F 44.6 °F 76% 29.97 in 10.0 mi North 6.9 mph - N/A   Overcast
2:15 AM 51.8 °F 44.6 °F 76% 29.99 in 10.0 mi North 6.9 mph - N/A   Overcast
2:35 AM 51.8 °F 44.6 °F 76% 29.98 in 10.0 mi North 8.1 mph - N/A   Overcast
2:55 AM 51.8 °F 44.6 °F 76% 29.97 in 10.0 mi North 4.6 mph - N/A   Overcast
3:15 AM 51.8 °F 44.6 °F 76% 29.97 in 10.0 mi North 5.8 mph - N/A   Overcast
3:35 AM 51.8 °F 44.6 °F 76% 29.98 in 10.0 mi North 8.1 mph - N/A   Overcast
3:55 AM 51.8 °F 44.6 °F 76% 29.97 in 10.0 mi North 5.8 mph - N/A   Overcast
4:15 AM 51.8 °F 44.6 °F 76% 29.97 in 10.0 mi North 4.6 mph - N/A   Overcast
4:35 AM 51.8 °F 44.6 °F 76% 29.97 in 10.0 mi North 3.5 mph - N/A   Overcast
4:55 AM 51.8 °F 44.6 °F 76% 29.97 in 10.0 mi North 3.5 mph - N/A   Overcast
5:15 AM 51.8 °F 44.6 °F 76% 29.96 in 10.0 mi North 3.5 mph - N/A   Overcast
5:35 AM 51.8 °F 44.6 °F 76% 29.96 in 10.0 mi North 5.8 mph - N/A   Overcast
5:55 AM 50.0 °F 44.6 °F 82% 29.96 in 10.0 mi NNE 3.5 mph - N/A   Overcast
6:15 AM 50.0 °F 44.6 °F 82% 29.96 in 10.0 mi North 4.6 mph - N/A   Overcast
6:35 AM 50.0 °F 44.6 °F 82% 29.96 in 10.0 mi North 3.5 mph - N/A   Overcast
6:55 AM 50.0 °F 44.6 °F 82% 29.96 in 10.0 mi Calm Calm - N/A   Overcast
7:15 AM 50.0 °F 44.6 °F 82% 29.96 in 10.0 mi Calm Calm - N/A   Overcast
7:35 AM 50.0 °F 44.6 °F 82% 29.96 in 10.0 mi North 4.6 mph - N/A   Overcast
7:55 AM 50.0 °F 44.6 °F 82% 29.96 in 10.0 mi NNE 4.6 mph - N/A   Overcast
8:15 AM 51.8 °F 44.6 °F 76% 29.97 in 10.0 mi North 3.5 mph - N/A   Overcast
8:35 AM 51.8 °F 44.6 °F 76% 29.97 in 10.0 mi NNE 3.5 mph - N/A   Overcast
8:55 AM 51.8 °F 46.4 °F 82% 29.97 in 10.0 mi North 9.2 mph - N/A   Overcast
9:15 AM 51.8 °F 46.4 °F 82% 29.98 in 10.0 mi North 4.6 mph - N/A   Overcast
9:55 AM 53.6 °F 46.4 °F 77% 29.98 in 10.0 mi North 8.1 mph - N/A   Overcast
10:15 AM 53.6 °F 46.4 °F 77% 29.97 in 10.0 mi North 6.9 mph - N/A   Overcast
10:35 AM 53.6 °F 46.4 °F 77% 29.98 in 10.0 mi North 6.9 mph - N/A   Overcast
10:55 AM 53.6 °F 46.4 °F 77% 29.98 in 10.0 mi North 5.8 mph - N/A   Overcast
11:15 AM 55.4 °F 46.4 °F 72% 29.98 in 10.0 mi North 6.9 mph - N/A   Overcast
11:35 AM 53.6 °F 46.4 °F 77% 29.98 in 10.0 mi NNW 5.8 mph - N/A   Overcast
11:55 AM 55.4 °F 46.4 °F 72% 29.97 in 10.0 mi North 3.5 mph - N/A   Overcast
12:15 PM 55.4 °F 46.4 °F 72% 29.97 in 10.0 mi North 3.5 mph - N/A   Overcast
12:35 PM 55.4 °F 46.4 °F 72% 29.97 in 10.0 mi NNW 6.9 mph - N/A   Overcast
12:55 PM 55.4 °F 46.4 °F 72% 29.96 in 10.0 mi NNW 4.6 mph - N/A   Overcast
1:15 PM 57.2 °F 46.4 °F 67% 29.96 in 10.0 mi NW 3.5 mph - N/A   Overcast
1:35 PM 57.2 °F 48.2 °F 72% 29.97 in 10.0 mi WNW 4.6 mph - N/A   Overcast
1:55 PM 57.2 °F 48.2 °F 72% 29.95 in 10.0 mi NW 3.5 mph - N/A   Overcast
2:15 PM 57.2 °F 48.2 °F 72% 29.94 in 10.0 mi NNW 4.6 mph - N/A   Overcast
2:35 PM 57.2 °F 48.2 °F 72% 29.94 in 10.0 mi NNW 3.5 mph - N/A   Overcast
2:55 PM 59.0 °F 48.2 °F 67% 29.94 in 10.0 mi North 3.5 mph - N/A   Overcast
3:15 PM 60.8 °F 48.2 °F 63% 29.95 in 10.0 mi North 5.8 mph - N/A   Overcast
3:35 PM 60.8 °F 48.2 °F 63% 29.95 in 10.0 mi Calm Calm - N/A   Overcast
3:55 PM 60.8 °F 48.2 °F 63% 29.95 in 10.0 mi NNE 3.5 mph - N/A   Overcast
4:15 PM 60.8 °F 48.2 °F 63% 29.94 in 10.0 mi North 4.6 mph - N/A   Overcast
4:35 PM 60.8 °F 48.2 °F 63% 29.94 in 10.0 mi Calm Calm - N/A   Mostly Cloudy
4:55 PM 60.8 °F 48.2 °F 63% 29.94 in 10.0 mi NNE 4.6 mph - N/A   Scattered Clouds
5:15 PM 60.8 °F 48.2 °F 63% 29.95 in 10.0 mi North 3.5 mph - N/A   Mostly Cloudy
5:35 PM 60.8 °F 48.2 °F 63% 29.94 in 10.0 mi North 5.8 mph - N/A   Mostly Cloudy
5:55 PM 59.0 °F 48.2 °F 67% 29.94 in 10.0 mi North 5.8 mph - N/A   Partly Cloudy
6:15 PM 57.2 °F 48.2 °F 72% 29.93 in 1.8 mi Calm Calm - N/A   Clear
6:35 PM 57.2 °F 48.2 °F 72% 29.94 in 0.5 mi North 4.6 mph - N/A   Unknown
6:55 PM 57.2 °F 48.2 °F 72% 29.93 in 2.5 mi Calm Calm - N/A   Clear
7:15 PM 57.2 °F 48.2 °F 72% 29.93 in 10.0 mi Calm Calm - N/A   Mostly Cloudy
7:35 PM 55.4 °F 48.2 °F 77% 29.94 in 10.0 mi Calm Calm - N/A   Overcast
7:55 PM 55.4 °F 48.2 °F 77% 29.94 in 10.0 mi Calm Calm - N/A   Overcast
8:15 PM 55.4 °F 48.2 °F 77% 29.94 in 10.0 mi North 5.8 mph - N/A   Overcast
8:35 PM 55.4 °F 48.2 °F 77% 29.96 in 10.0 mi Calm Calm - N/A   Overcast
8:55 PM 55.4 °F 50.0 °F 82% 29.95 in 10.0 mi Calm Calm - N/A   Overcast
9:15 PM 53.6 °F 50.0 °F 88% 29.96 in 10.0 mi Calm Calm - N/A   Overcast
9:35 PM 53.6 °F 50.0 °F 88% 29.97 in 10.0 mi Calm Calm - 0.01 in   Overcast
9:55 PM 53.6 °F 50.0 °F 88% 29.97 in 10.0 mi Calm Calm - 0.01 in   Overcast
10:15 PM 53.6 °F 48.2 °F 82% 29.97 in 10.0 mi Calm Calm - N/A   Scattered Clouds
10:35 PM 53.6 °F 48.2 °F 82% 29.98 in 10.0 mi Calm Calm - N/A   Clear
10:55 PM 53.6 °F 48.2 °F 82% 29.98 in 10.0 mi Calm Calm - N/A   Clear
11:15 PM 51.8 °F 48.2 °F 88% 29.98 in 10.0 mi Calm Calm - N/A   Partly Cloudy
11:35 PM 51.8 °F 48.2 °F 88% 29.98 in 10.0 mi Calm Calm - N/A   Mostly Cloudy
11:55 PM 51.8 °F 48.2 °F 88% 29.99 in 10.0 mi Calm Calm - N/A   Overcast